Weather History for Chievres, Belgium

Change the Weather History Date:

Thursday, December 20, 2012

  Actual Average Record
Temperature  
Mean Temperature 42 °F -  
Max Temperature 46 °F 40 °F 53 °F (2008)
Min Temperature 39 °F 35 °F 19 °F (2010)
Degree Days  
Heating Degree Days 22    
Moisture  
Dew Point 39 °F    
Average Humidity 90    
Maximum Humidity 100    
Minimum Humidity 74    
Precipitation  
Precipitation 0.28 in - - ()
Sea Level Pressure  
Sea Level Pressure 29.78 in    
Wind  
Wind Speed 9 mph ()    
Max Wind Speed 15 mph    
Max Gust Speed -    
Visibility 4.5 miles    
Events Rain    
Averages and records for this station are not official NWS values.
T = Trace of Precipitation, MM = Missing Value Source: Averaged Metar Reports

Daily Weather History Graph

Daily Weather History Graph

Search for Another Location

Airport:

Trip Planner

Search our weather history database for the weather conditions in past years. The results will help you decide how hot, cold, wet, or windy it might be!

Date:

Astronomy

Dec. 20, 2012 Rise Set
Actual Time 8:42 AM CET 4:41 PM CET
Civil Twilight 8:03 AM CET 5:21 PM CET
Nautical Twilight 7:21 AM CET 6:03 PM CET
Astronomical Twilight 6:41 AM CET 6:43 PM CET
Moon 12:25 PM CET (12/20) 12:37 AM CET (12/20)
Length of Visible Light 9h 17m
Length of Day
7h 58m
First Quarter, 52% of the Moon is Illuminated
Dec 20
First Quarter
Dec 28
Full
Jan 5
Last Quarter
Jan 11
New
Jan 19
First Quarter

Hourly Weather History & Observations

Time (CET) Temp. Windchill Dew Point Humidity Pressure Visibility Wind Dir Wind Speed Gust Speed Precip Events Conditions
12:25 AM 41.0 °F 35.2 °F 35.6 °F 81% 30.04 in 6.2 mi ESE 9.2 mph - N/A   Mostly Cloudy
1:00 AM 39 °F - 36 °F 83% 30.04 in 5 mi ESE 6.7 mph - -   Mostly Cloudy
1:25 AM 39.2 °F 34.2 °F 35.6 °F 87% 30.01 in 5.0 mi ESE 6.9 mph - N/A   Mostly Cloudy
2:25 AM 39.2 °F 33.6 °F 35.6 °F 87% 29.98 in 6.2 mi ESE 8.1 mph - N/A   Mostly Cloudy
3:25 AM 41.0 °F 35.2 °F 35.6 °F 81% 29.95 in 6.2 mi ESE 9.2 mph - N/A   Mostly Cloudy
4:00 AM 41 °F - 36 °F 74% 29.96 in 9 mi ESE 8.9 mph - -   Partly Cloudy
4:25 AM 41.0 °F 35.2 °F 35.6 °F 81% 29.92 in 6.2 mi SE 9.2 mph - N/A   Mostly Cloudy
5:25 AM 41.0 °F 35.2 °F 35.6 °F 81% 29.92 in 6.2 mi SE 9.2 mph - N/A   Mostly Cloudy
5:52 AM 41.0 °F 35.2 °F 35.6 °F 81% 29.89 in 4.3 mi SE 9.2 mph - N/A   Light Drizzle
6:25 AM 41.0 °F 34.7 °F 37.4 °F 87% 29.89 in 3.7 mi SE 10.4 mph - N/A Rain Light Rain
7:00 AM 40 °F - 38 °F 89% 29.89 in 3 mi SE 11.2 mph - - Rain Light Rain
7:25 AM 39.2 °F 32.0 °F 37.4 °F 93% 29.86 in 3.1 mi SE 11.5 mph - N/A Rain Light Rain
7:44 AM 39.2 °F 32.0 °F 37.4 °F 93% 29.86 in 2.8 mi SE 11.5 mph - N/A Rain Light Rain
8:25 AM 39.2 °F 32.5 °F 37.4 °F 93% 29.83 in 2.5 mi SE 10.4 mph - N/A Rain Light Rain
8:43 AM 39.2 °F 33.0 °F 37.4 °F 93% 29.83 in 2.2 mi SE 9.2 mph - N/A Rain Light Rain
9:13 AM 39.2 °F 32.0 °F 37.4 °F 93% 29.83 in 2.8 mi SE 11.5 mph - N/A Rain Light Rain
9:25 AM 39.2 °F 32.5 °F 39.2 °F 100% 29.83 in 3.1 mi SE 10.4 mph - N/A Rain Light Rain
10:25 AM 39.2 °F 32.5 °F 37.4 °F 93% 29.83 in 3.7 mi SSE 10.4 mph - N/A Rain Light Rain
10:53 AM 39.2 °F 30.8 °F 37.4 °F 93% 29.80 in 4.3 mi SSE 15.0 mph - N/A Rain Light Rain
11:25 AM 41.0 °F 33.1 °F 37.4 °F 87% 29.80 in 3.7 mi SSE 15.0 mph - N/A Rain Light Rain
12:25 PM 41.0 °F 33.5 °F 37.4 °F 87% 29.74 in 4.3 mi SE 13.8 mph - N/A Rain Light Rain
1:00 PM 40 °F - 38 °F 88% 29.76 in 4 mi SE 13.4 mph - - Rain Light Rain
1:25 PM 41.0 °F 33.9 °F 37.4 °F 87% 29.74 in 4.3 mi SSE 12.7 mph - N/A Rain Light Rain
2:25 PM 41.0 °F 33.5 °F 37.4 °F 87% 29.71 in 4.3 mi SSE 13.8 mph - N/A Rain Light Rain
3:25 PM 41.0 °F 33.5 °F 37.4 °F 87% 29.68 in 3.7 mi SSE 13.8 mph - N/A Rain Light Rain
3:41 PM 41.0 °F 33.9 °F 37.4 °F 87% 29.68 in 2.8 mi SSE 12.7 mph - N/A Rain Light Rain
4:00 PM 40 °F - 38 °F 91% 29.71 in 3 mi SSE 11.2 mph - - Rain Light Rain
4:14 PM 41.0 °F 34.3 °F 37.4 °F 87% 29.68 in 4.3 mi SSE 11.5 mph - N/A Rain Light Rain
4:25 PM 41.0 °F 34.3 °F 39.2 °F 93% 29.68 in 4.3 mi SSE 11.5 mph - N/A Rain Light Rain
5:25 PM 41.0 °F 34.7 °F 39.2 °F 93% 29.68 in 5.0 mi SSE 10.4 mph - N/A Rain Light Rain
6:12 PM 41.0 °F 34.3 °F 39.2 °F 93% 29.68 in 5.6 mi SSE 11.5 mph - N/A   Drizzle
6:18 PM 41.0 °F 34.7 °F 39.2 °F 93% 29.68 in 5.6 mi SSE 10.4 mph - N/A   Drizzle
6:24 PM 41.0 °F 34.3 °F 39.2 °F 93% 29.68 in 5.0 mi SSE 11.5 mph - N/A   Drizzle
6:25 PM 41.0 °F 33.9 °F 39.2 °F 93% 29.68 in 5.0 mi SSE 12.7 mph - N/A   Drizzle
7:00 PM 42 °F - 40 °F 91% 29.69 in 6 mi SSE 11.2 mph - - Rain Drizzle
7:25 PM 42.8 °F 37.0 °F 41.0 °F 93% 29.68 in 5.6 mi SSE 10.4 mph - N/A   Drizzle
8:07 PM 42.8 °F 36.6 °F 42.8 °F 100% 29.68 in - South 11.5 mph - N/A Rain Rain
8:13 PM 42.8 °F 36.6 °F 42.8 °F 100% 29.68 in - South 11.5 mph - N/A Rain Rain
8:25 PM 42.8 °F 37.0 °F 42.8 °F 100% 29.68 in - South 10.4 mph - N/A Rain Light Rain
8:40 PM 44.6 °F 38.4 °F 42.8 °F 93% 29.68 in - South 12.7 mph - N/A Rain Light Rain Showers
8:46 PM 44.6 °F 38.8 °F 42.8 °F 93% 29.68 in - South 11.5 mph - N/A Rain Light Rain Showers
9:12 PM 44.6 °F 39.7 °F 42.8 °F 93% 29.68 in 4.3 mi South 9.2 mph - N/A   Mostly Cloudy
9:18 PM 44.6 °F 39.7 °F 42.8 °F 93% 29.68 in 4.3 mi South 9.2 mph - N/A   Mostly Cloudy
9:25 PM 44.6 °F 39.7 °F 42.8 °F 93% 29.68 in 4.3 mi South 9.2 mph - N/A   Mostly Cloudy
10:00 PM 45 °F - 44 °F 95% 29.70 in 4 mi South 8.9 mph - -   Clear
10:25 PM 46.4 °F 41.9 °F 44.6 °F 93% 29.68 in 4.3 mi South 9.2 mph - N/A   Overcast
10:37 PM 46.4 °F 41.5 °F 44.6 °F 93% 29.68 in 5.0 mi South 10.4 mph - N/A   Mostly Cloudy
11:25 PM 46.4 °F 41.5 °F 44.6 °F 93% 29.68 in 5.0 mi SSW 10.4 mph - N/A   Mostly Cloudy